This demonstration page uses our WeatherBlox Daily Observations layout. Learn more.

Left ArrowRight Arrow

Hourly Observations for July 5, 2015

Temp ( °F °C ) Dew Point ( °F °C ) Humidity (%) Winds ( mph kmh ) Pressure ( in mb ) Visibility ( mi km ) Precip ( " mm )
12:15 am 00:15 Partly Cloudy with Mist and Fog 68 20 68 20 100 100 N N/A 30.06 1018 3 5 N/A
12:35 am 00:35 Cloudy with Mist and Fog 68 20 68 20 100 100 WNW 7 11 30.06 1018 3 5 N/A
12:55 am 00:55 Mostly Cloudy with Mist and Fog 68 20 68 20 100 100 NNW 6 9 30.06 1018 5 8 N/A
1:15 am 01:15 Cloudy with Mist and Fog 68 20 68 20 100 100 NW 6 9 30.06 1018 5 8 N/A
1:35 am 01:35 Partly Cloudy with Mist and Fog 68 20 68 20 100 100 NW 3 6 30.06 1018 5 8 N/A
1:55 am 01:55 Mostly Cloudy with Mist and Fog 68 20 68 20 100 100 N N/A 30.06 1018 5 8 N/A
2:15 am 02:15 Partly Cloudy with Mist and Fog 68 20 68 20 100 100 NW 3 6 30.06 1018 5 8 N/A
2:35 am 02:35 Clear with Mist and Fog 64 18 64 18 100 100 NW 3 6 30.06 1018 3 5 N/A
2:55 am 02:55 Clear with Mist and Fog 64 18 64 18 100 100 N N/A 30.09 1019 3 4 N/A
3:15 am 03:15 Clear with Mist and Fog 64 18 64 18 100 100 N N/A 30.09 1019 3 5 N/A
3:35 am 03:35 Clear with Mist and Fog 64 18 64 18 100 100 N N/A 30.09 1019 4 6 N/A
3:55 am 03:55 Clear with Mist and Fog 64 18 64 18 100 100 N N/A 30.09 1019 4 6 N/A
4:15 am 04:15 Mostly Cloudy with Mist and Fog 66 19 66 19 100 100 NNW 5 7 30.09 1019 3 4 N/A
4:35 am 04:35 Cloudy with Fog 66 19 66 19 100 100 N 5 7 30.09 1019 1 1 N/A
4:55 am 04:55 Cloudy with Fog 66 19 66 19 100 100 N N/A 30.09 1019 0 0 N/A
5:15 am 05:15 Cloudy with Fog 66 19 66 19 100 100 N 5 7 30.09 1019 0 0 N/A
5:35 am 05:35 Cloudy with Fog 66 19 66 19 100 100 N 3 6 30.09 1019 0 0 N/A
5:55 am 05:55 Cloudy with Fog 64 18 64 18 100 100 NNW 3 6 30.12 1020 0 0 N/A
6:15 am 06:15 Cloudy with Fog 66 19 66 19 100 100 N 6 9 30.12 1020 5 8 N/A
6:35 am 06:35 Cloudy with Fog 64 18 64 18 100 100 N 5 7 30.12 1020 0 0 N/A
6:55 am 06:55 Cloudy with Fog 66 19 66 19 100 100 N 3 6 30.15 1021 0 0 N/A
7:15 am 07:15 Cloudy with Fog 66 19 66 19 100 100 N N/A 30.15 1021 0 0 N/A
7:35 am 07:35 Cloudy with Mist and Fog 66 19 66 19 100 100 N 5 7 30.15 1021 1 2 N/A
7:55 am 07:55 Cloudy with Mist and Fog 66 19 66 19 100 100 N N/A 30.15 1021 2 3 N/A
8:15 am 08:15 Cloudy with Mist and Fog 66 19 66 19 100 100 N N/A 30.15 1021 1 2 N/A
8:35 am 08:35 Cloudy with Mist and Fog 66 19 66 19 100 100 N N/A 30.15 1021 2 3 N/A
8:55 am 08:55 Cloudy with Mist and Fog 68 20 68 20 100 100 NW 6 9 30.18 1022 3 4 N/A
9:15 am 09:15 Cloudy with Mist and Fog 68 20 68 20 100 100 N N/A 30.18 1022 3 5 N/A
9:35 am 09:35 Cloudy with Mist and Fog 68 20 68 20 100 100 N 3 6 30.18 1022 3 5 N/A
9:55 am 09:55 Cloudy with Mist and Fog 70 21 70 21 100 100 WNW 5 7 30.18 1022 4 6 N/A
10:15 am 10:15 Cloudy with Mist and Fog 70 21 70 21 100 100 NW 5 7 30.18 1022 4 6 N/A
10:35 am 10:35 Partly Cloudy with Mist and Fog 72 22 70 21 94 94 NNW 5 7 30.18 1022 5 8 N/A
10:55 am 10:55 Mostly Cloudy 72 22 70 21 94 94 E 5 7 30.18 1022 7 11 N/A
11:15 am 11:15 Cloudy 73 23 70 21 89 89 S 5 7 30.18 1022 7 11 N/A
11:35 am 11:35 Cloudy 73 23 70 21 89 89 SSE 3 6 30.18 1022 7 11 N/A
11:55 am 11:55 Mostly Cloudy 73 23 70 21 89 89 S 5 7 30.18 1022 7 11 N/A
12:15 pm 12:15 Cloudy 75 24 70 21 83 83 S 5 7 30.18 1022 7 11 N/A
12:35 pm 12:35 Cloudy 75 24 70 21 83 83 ENE 5 7 30.18 1022 7 11 N/A
12:55 pm 12:55 Mostly Cloudy 77 25 70 21 79 79 S 7 11 30.18 1022 10 16 N/A
1:15 pm 13:15 Mostly Cloudy 79 26 72 22 79 79 N N/A 30.18 1022 10 16 N/A
1:35 pm 13:35 Mostly Cloudy 79 26 70 21 74 74 S 8 13 30.18 1022 10 16 N/A
1:55 pm 13:55 Cloudy 79 26 72 22 79 79 SSW 7 11 30.15 1021 10 16 N/A
2:15 pm 14:15 Mostly Cloudy 81 27 70 21 70 70 SSW 8 13 30.15 1021 10 16 N/A
2:35 pm 14:35 Partly Cloudy 81 27 70 21 70 70 SW 5 7 30.15 1021 10 16 N/A
2:55 pm 14:55 Sunny 82 28 72 22 70 70 SSE 8 13 30.15 1021 10 16 N/A
3:15 pm 15:15 Partly Cloudy 82 28 72 22 70 70 SSW 7 11 30.15 1021 10 16 N/A
3:35 pm 15:35 Mostly Cloudy 81 27 72 22 74 74 SSW 12 19 30.15 1021 10 16 N/A
3:55 pm 15:55 Mostly Cloudy 82 28 72 22 70 70 SSW 8 13 30.12 1020 10 16 N/A
4:15 pm 16:15 Mostly Cloudy 82 28 72 22 70 70 SSW 10 17 30.12 1020 10 16 N/A
4:35 pm 16:35 Partly Cloudy 82 28 72 22 70 70 S 5 7 30.12 1020 10 16 N/A
4:55 pm 16:55 Partly Cloudy 82 28 72 22 70 70 S 12 19 30.12 1020 10 16 N/A
5:15 pm 17:15 Cloudy 81 27 72 22 74 74 SSW 12 19 30.12 1020 10 16 N/A
5:35 pm 17:35 Cloudy 81 27 73 23 79 79 SSW 12 19 30.12 1020 10 16 N/A
5:55 pm 17:55 Cloudy 81 27 73 23 79 79 SSW 10 17 30.12 1020 10 16 N/A
6:15 pm 18:15 Mostly Cloudy 81 27 73 23 79 79 SSW 13 20 30.12 1020 10 16 N/A
6:35 pm 18:35 Partly Cloudy 81 27 73 23 79 79 S 7 11 30.12 1020 10 16 N/A
6:55 pm 18:55 Partly Cloudy 81 27 73 23 79 79 SSW 13 20 30.12 1020 10 16 N/A
7:15 pm 19:15 Sunny 81 27 73 23 79 79 N N/A 30.12 1020 10 16 N/A
7:35 pm 19:35 Partly Cloudy 81 27 73 23 79 79 SSW 5 7 30.12 1020 10 16 N/A
7:55 pm 19:55 Mostly Cloudy 79 26 73 23 84 84 S 6 9 30.12 1020 10 16 N/A
8:15 pm 20:15 Cloudy 79 26 73 23 84 84 S 10 17 30.12 1020 10 16 N/A
8:35 pm 20:35 Mostly Cloudy 81 27 72 22 74 74 S 5 7 30.12 1020 10 16 N/A
8:55 pm 20:55 Partly Cloudy 79 26 72 22 79 79 SSE 3 6 30.12 1020 10 16 N/A
9:15 pm 21:15 Clear 79 26 72 22 79 79 SSE 5 7 30.12 1020 10 16 N/A
9:35 pm 21:35 Clear 79 26 72 22 79 79 SSE 5 7 30.12 1020 10 16 N/A
9:55 pm 21:55 Partly Cloudy 79 26 73 23 84 84 SSE 6 9 30.15 1021 10 16 N/A
10:15 pm 22:15 Mostly Cloudy 79 26 73 23 84 84 SSE 5 7 30.15 1021 10 16 N/A
10:35 pm 22:35 Partly Cloudy 77 25 73 23 89 89 SE 6 9 30.15 1021 10 16 N/A
10:55 pm 22:55 Mostly Cloudy 77 25 73 23 89 89 SE 6 9 30.15 1021 10 16 N/A
11:15 pm 23:15 Partly Cloudy 77 25 73 23 89 89 S 6 9 30.15 1021 10 16 N/A
11:35 pm 23:35 Mostly Cloudy with Light Rain 77 25 73 23 89 89 SSE 7 11 30.15 1021 10 16 N/A
11:55 pm 23:55 Mostly Cloudy with Light Rain 75 24 73 23 94 94 SSE 8 13 30.15 1021 7 11 N/A

Powered by AerisWeather